Notices

What's New in latest Release from April 7th, 2021:

- Updated Glossary, including Speed of Maximum Gust, and Total Hourly Precipitation

- Updated national and regional climate services offices contacts and prices information

- Addition of station inventory lists for 1981-2010, 1971-2000, and 1961-1990 Normals.

If you haven't already, please take our survey and provide feedback about our website: https://eccc.sondage-survey.ca/f/LanguageSelection.aspx?s=442ca660-fcf1-47c0-95a9-59707d6fd709

Hourly Data Report for September 30, 2015

IQALUIT CLIMATE
NUNAVUT

63°44'50.000" N
68°32'40.000" W
33.50 m
2402592
71321
XFB

Download Data

Hourly Data (September 2015)
Hourly Data Report for September 30, 2015
TIME
LST
Temp Definition
°C
Dew Point Definition
°C
Rel Hum Definition
%
Precip. Amount Definition
mm

Wind Dir Definition
10's deg

Wind Spd Definition
km/h
Visibility Definition
km
Stn Press Definition
kPa
Hmdx Definition


Wind Chill Definition


Weather Definition


00:00 0.3 -2.4 82 0.0 1 5   100.30     LegendNANA
01:00 0.6 -2.5 79 0.0 29 1   100.34     LegendNANA
02:00 0.9 -2.6 77 0.0 35 5   100.39     LegendNANA
03:00 1.7 -2.8 72 0.0 7 11   100.43     LegendNANA
04:00 1.2 -2.8 75 0.0 3 3   100.50     LegendNANA
05:00 1.3 -2.4 76 0.0 5 7   100.58     LegendNANA
06:00 1.2 -2.5 77 0.0 31 7   100.68     LegendNANA
07:00 1.9 -2.7 71 0.0 3 8   100.77     LegendNANA
08:00 2.5 -2.5 70 0.0 4 9   100.85     LegendNANA
09:00
10:00
11:00
12:00 5.4 -1.4 62 0.0 1 15   101.13     LegendNANA
13:00 5.0 -2.2 59 0.0 35 15   101.23     LegendNANA
14:00 5.6 -1.5 60 0.0 32 17   101.31     LegendNANA
15:00 4.8 -1.3 65 0.0 32 18   101.41     LegendNANA
16:00 4.7 -0.9 67 0.0 31 17   101.51     LegendNANA
17:00 2.3 -2.7 70 0.0 34 8   101.63     LegendNANA
18:00 0.9 -1.8 83 0.0 33 11   101.75     LegendNANA
19:00 0.5 -1.7 85 0.0 33 12   101.85     LegendNANA
20:00 -0.7 -2.7 86 0.0 33 9   101.95   -4 LegendNANA
21:00 0.2 -1.5 88 0.0 30 11   102.02     LegendNANA
22:00 0.2 -1.3 90 0.0 32 14   102.10     LegendNANA
23:00 -0.1 -1.5 90 0.0 29 10   102.18   -3 LegendNANA

Notes on Data Quality.

Legend

  • E = Estimated
  • M = Missing
  • NA = Not Available*
  • [empty] = Indicates an unobserved value
Date modified: